| time (UTC) | temp F | wind direction | speed MPH | gust MPH | rain 1hr in | rain 24hr in | rain mn in | humidity % | barometer mb |
| 20260504230656 | 75 | 173 | 11.0 | 18.0 | 0.00 | 0.01 | 0.01 | 28 | 1005.2 |
| 20260504225640 | 75 | 242 | 6.0 | 11.0 | 0.00 | 0.01 | 0.01 | 24 | 1005.2 |
| 20260504224623 | 75 | 261 | 9.0 | 13.0 | 0.00 | 0.01 | 0.01 | 23 | 1005.2 |
| 20260504223627 | 76 | 336 | 3.0 | 13.0 | 0.00 | 0.01 | 0.01 | 22 | 1005.3 |
| 20260504222648 | 76 | 271 | 2.0 | 11.0 | 0.00 | 0.01 | 0.01 | 23 | 1005.2 |
| 20260504221634 | 75 | 278 | 7.0 | 11.0 | 0.00 | 0.01 | 0.01 | 21 | 1005.4 |
| 20260504220618 | 75 | 344 | 6.0 | 13.0 | 0.00 | 0.01 | 0.01 | 23 | 1005.4 |
| 20260504215621 | 75 | 283 | 4.0 | 11.0 | 0.00 | 0.01 | 0.01 | 21 | 1005.6 |
| 20260504214627 | 75 | 311 | 4.0 | 10.0 | 0.00 | 0.01 | 0.01 | 24 | 1005.7 |
| 20260504193632 | 73 | 284 | 1.0 | 11.0 | 0.00 | 0.01 | 0.01 | 30 | 1007.3 |
| 20260504192628 | 73 | 305 | 8.0 | 14.0 | 0.00 | 0.01 | 0.01 | 32 | 1007.4 |
| 20260504191646 | 73 | 271 | 5.0 | 9.0 | 0.00 | 0.01 | 0.01 | 32 | 1007.5 |
| 20260504190627 | 72 | 355 | 4.0 | 10.0 | 0.00 | 0.01 | 0.01 | 31 | 1007.6 |
| 20260504185625 | 72 | 286 | 2.0 | 11.0 | 0.00 | 0.01 | 0.01 | 33 | 1007.7 |
| 20260504184627 | 72 | 324 | 6.0 | 9.0 | 0.00 | 0.01 | 0.01 | 33 | 1007.8 |
| 20260504183624 | 73 | 264 | 9.0 | 13.0 | 0.00 | 0.01 | 0.01 | 32 | 1007.9 |
| 20260504182627 | 72 | 200 | 4.0 | 13.0 | 0.00 | 0.01 | 0.01 | 29 | 1008.1 |
| 20260504181630 | 72 | 281 | 5.0 | 9.0 | 0.01 | 0.01 | 0.01 | 34 | 1008.2 |
| 20260504180616 | 72 | 105 | 3.0 | 9.0 | 0.01 | 0.01 | 0.01 | 34 | 1008.4 |
| 20260504175618 | 71 | 173 | 4.0 | 7.0 | 0.01 | 0.01 | 0.01 | 34 | 1008.5 |